User: anonymous   Login
Location: Unspecified
(0.0000°N, 0.0000°E)
Time: 04:16:27
(UTC+00:00)
Language:

STARLINK-31022 - Orbit

View from above orbital plane
View from above orbital plane
View from above satellite
View from above satellite

Ground track
Ground track

The orbit is defined by the following mean orbital elements,

1 58633U          26145.30681477 +.00000000 +00000-0 +11814-3 0 00000
2 58633  43.0012 358.2955 0000981 275.5631  84.5109 15.27588337    07
Epoch (UTC): 25 May 2026 07:21:48
Eccentricity: 0.0000981
inclination: 43.0012°
perigee height: 482 km
apogee height: 484 km
right ascension of ascending node: 358.2955°
argument of perigee: 275.5631°
revolutions per day: 15.27588337
mean anomaly at epoch: 84.5109°

The dashed part of the orbit path shows where the satellite is in the earth's shadow,  

DLR